When you browse on this site, cookies collect data to enhance your experience and personalize the content and advertising you see.
Visit our Privacy Policy to learn more. By continuing to use the site, you agree to this use of cookies and data.
  • In Hungary
  • List of Countries
  • For 7 days
  • Water Temperature
  • Satellite Maps
  • Weather Map
  • News
  • Weather Widgets
  • user-avatar
    Login

    Hourly Weather Szczurowa

    Today, 19 May, Sunday

    Time Temperature Precipitation Wind Pressure Humidity
    00:00 +14°C° 0 mm 2 mps 740 mmHg 92%
    01:00 +14°C° 0 mm 1 mps 740 mmHg 92%
    02:00 +13°C° 0 mm 1 mps 740 mmHg 92%
    03:00 +13°C° 0 mm 1 mps 739 mmHg 92%
    04:00 +12°C° 0 mm 1 mps 739 mmHg 92%
    05:00 +14°C° 0 mm 1 mps 739 mmHg 89%
    06:00 +16°C° 0 mm 1 mps 739 mmHg 85%
    07:00 +18°C° 0 mm 1 mps 739 mmHg 81%
    08:00 +19°C° 0 mm 2 mps 739 mmHg 76%
    09:00 +20°C° 0 mm 2 mps 739 mmHg 71%
    10:00 +23°C° 0 mm 2 mps 739 mmHg 66%
    11:00 +24°C° 0.1 mm 3 mps 739 mmHg 64%
    12:00 +25°C° 0.1 mm 4 mps 739 mmHg 61%
    13:00 +25°C° 0 mm 5 mps 739 mmHg 61%
    14:00 +23°C° 0.3 mm 5 mps 739 mmHg 63%
    15:00 +23°C° 0.3 mm 5 mps 739 mmHg 66%
    16:00 +23°C° 0.3 mm 6 mps 738 mmHg 68%
    17:00 +21°C° 0 mm 5 mps 738 mmHg 73%
    18:00 +20°C° 0 mm 4 mps 738 mmHg 78%
    19:00 +19°C° 0 mm 4 mps 738 mmHg 83%
    20:00 +18°C° 0 mm 4 mps 738 mmHg 86%
    21:00 +16°C° 0 mm 3 mps 738 mmHg 89%
    22:00 +14°C° 0 mm 3 mps 738 mmHg 92%
    23:00 +14°C° 0 mm 3 mps 738 mmHg 91%

    Tomorrow, 20 May, Monday

    Time Temperature Precipitation Wind Pressure Humidity
    00:00 +15°C° 0 mm 2 mps 738 mmHg 91%
    01:00 +14°C° 0 mm 2 mps 737 mmHg 91%
    02:00 +14°C° 0 mm 2 mps 737 mmHg 92%
    03:00 +14°C° 0 mm 2 mps 737 mmHg 92%
    04:00 +14°C° 0 mm 2 mps 737 mmHg 93%
    05:00 +14°C° 0 mm 3 mps 736 mmHg 88%
    06:00 +17°C° 0 mm 4 mps 736 mmHg 83%
    07:00 +19°C° 0 mm 4 mps 736 mmHg 78%
    08:00 +21°C° 0 mm 5 mps 737 mmHg 72%
    09:00 +22°C° 0 mm 6 mps 737 mmHg 67%
    10:00 +24°C° 0 mm 6 mps 737 mmHg 61%
    11:00 +24°C° 0 mm 6 mps 737 mmHg 60%
    12:00 +26°C° 0 mm 6 mps 737 mmHg 58%
    13:00 +26°C° 0 mm 6 mps 737 mmHg 56%
    14:00 +26°C° 0 mm 6 mps 737 mmHg 59%
    15:00 +25°C° 0 mm 5 mps 737 mmHg 62%
    16:00 +25°C° 0 mm 5 mps 737 mmHg 65%
    17:00 +22°C° 0 mm 5 mps 737 mmHg 69%
    18:00 +20°C° 0 mm 4 mps 737 mmHg 73%
    19:00 +19°C° 0 mm 4 mps 737 mmHg 77%
    20:00 +18°C° 0 mm 3 mps 737 mmHg 78%
    21:00 +17°C° 0 mm 3 mps 737 mmHg 80%
    22:00 +16°C° 0 mm 3 mps 738 mmHg 81%
    23:00 +14°C° 0 mm 3 mps 738 mmHg 83%

    Day after tomorrow, 21 May, Tuesday

    Time Temperature Precipitation Wind Pressure Humidity
    00:00 +14°C° 0 mm 2 mps 738 mmHg 84%
    01:00 +14°C° 0 mm 2 mps 738 mmHg 86%
    02:00 +13°C° 0 mm 2 mps 738 mmHg 86%
    03:00 +13°C° 0 mm 2 mps 737 mmHg 87%
    04:00 +12°C° 0 mm 1 mps 737 mmHg 88%
    05:00 +14°C° 0 mm 1 mps 737 mmHg 85%
    06:00 +15°C° 0 mm 1 mps 737 mmHg 83%
    07:00 +16°C° 0 mm 1 mps 737 mmHg 81%
    08:00 +18°C° 0.1 mm 1 mps 737 mmHg 80%
    09:00 +18°C° 0.1 mm 1 mps 737 mmHg 80%
    10:00 +18°C° 0.1 mm 2 mps 737 mmHg 79%
    11:00 +18°C° 0.9 mm 2 mps 737 mmHg 80%
    12:00 +18°C° 0.9 mm 3 mps 737 mmHg 82%
    13:00 +18°C° 0.9 mm 4 mps 736 mmHg 83%
    14:00 +18°C° 1.1 mm 3 mps 736 mmHg 84%
    15:00 +18°C° 1.1 mm 3 mps 736 mmHg 85%
    16:00 +17°C° 1.1 mm 2 mps 736 mmHg 86%
    17:00 +17°C° 2.1 mm 2 mps 736 mmHg 88%
    18:00 +16°C° 2.1 mm 2 mps 736 mmHg 90%
    19:00 +15°C° 2.1 mm 2 mps 736 mmHg 91%
    20:00 +14°C° 0.7 mm 3 mps 736 mmHg 92%
    21:00 +14°C° 0.7 mm 3 mps 737 mmHg 92%
    22:00 +13°C° 0.7 mm 3 mps 737 mmHg 92%
    23:00 +13°C° 0.1 mm 3 mps 737 mmHg 92%

    22 May, Wednesday

    Time Temperature Precipitation Wind Pressure Humidity
    00:00 +13°C° 0.1 mm 3 mps 737 mmHg 92%
    01:00 +13°C° 0.1 mm 3 mps 737 mmHg 92%
    02:00 +13°C° 0.3 mm 3 mps 737 mmHg 92%
    03:00 +13°C° 0.3 mm 3 mps 737 mmHg 92%
    04:00 +13°C° 0.3 mm 4 mps 737 mmHg 92%
    05:00 +13°C° 1 mm 4 mps 737 mmHg 93%
    06:00 +13°C° 1 mm 4 mps 737 mmHg 93%
    07:00 +13°C° 1 mm 4 mps 737 mmHg 93%
    08:00 +13°C° 0.3 mm 4 mps 737 mmHg 93%
    09:00 +14°C° 0.3 mm 4 mps 738 mmHg 92%
    10:00 +14°C° 0.3 mm 4 mps 738 mmHg 91%
    11:00 +17°C° 0.6 mm 4 mps 738 mmHg 87%
    12:00 +18°C° 0.6 mm 4 mps 738 mmHg 83%
    13:00 +20°C° 0.6 mm 5 mps 738 mmHg 78%
    14:00 +20°C° 1.2 mm 5 mps 738 mmHg 80%
    15:00 +19°C° 1.2 mm 5 mps 738 mmHg 82%
    16:00 +19°C° 1.2 mm 6 mps 738 mmHg 85%
    17:00 +17°C° 0.5 mm 5 mps 738 mmHg 87%
    18:00 +16°C° 0.5 mm 5 mps 738 mmHg 89%
    19:00 +15°C° 0.5 mm 5 mps 738 mmHg 91%
    20:00 +14°C° 0.4 mm 5 mps 738 mmHg 93%
    21:00 +14°C° 0.4 mm 4 mps 738 mmHg 94%
    22:00 +14°C° 0.4 mm 4 mps 739 mmHg 95%
    23:00 +14°C° 0.5 mm 4 mps 739 mmHg 95%

    23 May, Thursday

    Time Temperature Precipitation Wind Pressure Humidity
    00:00 +14°C° 0.5 mm 5 mps 739 mmHg 95%
    01:00 +14°C° 0.5 mm 5 mps 739 mmHg 95%
    02:00 +14°C° 0.4 mm 5 mps 739 mmHg 95%
    03:00 +14°C° 0.4 mm 5 mps 739 mmHg 95%
    04:00 +14°C° 0.4 mm 5 mps 739 mmHg 95%
    05:00 +15°C° 0.5 mm 5 mps 739 mmHg 94%
    06:00 +15°C° 0.5 mm 5 mps 740 mmHg 92%
    07:00 +15°C° 0.5 mm 5 mps 740 mmHg 91%
    08:00 +15°C° 1 mm 6 mps 741 mmHg 91%
    09:00 +14°C° 1 mm 7 mps 741 mmHg 92%
    10:00 +12°C° 1 mm 8 mps 741 mmHg 92%
    11:00 +12°C° 0.5 mm 8 mps 742 mmHg 91%
    12:00 +11°C° 0.5 mm 8 mps 742 mmHg 91%
    13:00 +10°C° 0.5 mm 8 mps 742 mmHg 91%
    14:00 +10°C° 0.5 mm 8 mps 743 mmHg 90%
    15:00 +10°C° 0.5 mm 8 mps 743 mmHg 90%
    16:00 +9°C° 0.5 mm 8 mps 743 mmHg 90%
    17:00 +9°C° 0.1 mm 7 mps 743 mmHg 90%
    18:00 +9°C° 0.1 mm 7 mps 743 mmHg 90%
    19:00 +8°C° 0.1 mm 6 mps 744 mmHg 90%
    20:00 +8°C° 0 mm 6 mps 744 mmHg 89%
    21:00 +8°C° 0 mm 5 mps 744 mmHg 89%
    22:00 +8°C° 0 mm 5 mps 745 mmHg 89%
    23:00 +8°C° 0 mm 5 mps 745 mmHg 90%

    24 May, Friday

    Time Temperature Precipitation Wind Pressure Humidity
    00:00 +8°C° 0 mm 4 mps 745 mmHg 91%
    01:00 +8°C° 0 mm 4 mps 745 mmHg 92%
    02:00 +8°C° 0 mm 4 mps 745 mmHg 92%
    03:00 +7°C° 0 mm 4 mps 745 mmHg 93%
    04:00 +8°C° 0 mm 3 mps 745 mmHg 94%
    05:00 +8°C° 0 mm 4 mps 745 mmHg 90%
    06:00 +10°C° 0 mm 4 mps 745 mmHg 85%
    07:00 +11°C° 0 mm 4 mps 745 mmHg 81%
    08:00 +12°C° 0 mm 4 mps 745 mmHg 76%
    09:00 +14°C° 0 mm 4 mps 744 mmHg 71%
    10:00 +15°C° 0 mm 4 mps 744 mmHg 66%
    11:00 +17°C° 0 mm 4 mps 744 mmHg 63%
    12:00 +18°C° 0 mm 4 mps 743 mmHg 60%
    13:00 +19°C° 0 mm 3 mps 743 mmHg 57%
    14:00 +19°C° 0 mm 3 mps 743 mmHg 59%
    15:00 +19°C° 0 mm 3 mps 742 mmHg 61%
    16:00 +19°C° 0 mm 3 mps 742 mmHg 62%
    17:00 +17°C° 0 mm 2 mps 742 mmHg 67%
    18:00 +16°C° 0 mm 2 mps 742 mmHg 72%
    19:00 +14°C° 0 mm 1 mps 742 mmHg 77%
    20:00 +14°C° 0 mm 1 mps 742 mmHg 80%
    21:00 +13°C° 0 mm 1 mps 742 mmHg 82%
    22:00 +12°C° 0 mm 1 mps 742 mmHg 84%
    23:00 +11°C° 0 mm 1 mps 742 mmHg 85%
    Show more